This is the latest recevied weather packets stored in our database for station/object K3RUP-1. If no packets are shown the sender has not sent any weather packets the latest 10 day(s).
| Time | Temp. | Humidity | Pressure | Rain* | Wind** | Luminosity | Snow |
|---|---|---|---|---|---|---|---|
| 1777469330 | 13.89° C | 78% | 1014.1 hPa | 0 mm | - | 102 W/m² | - |
| 1777469025 | 13.89° C | 78% | 1014.1 hPa | 0 mm | - | 116 W/m² | - |
| 1777468721 | 13.89° C | 79% | 1014.3 hPa | 0 mm | - | 80 W/m² | - |
| 1777468417 | 13.89° C | 79% | 1014.1 hPa | 0 mm | - | 91 W/m² | - |
| 1777468113 | 13.89° C | 79% | 1014 hPa | 0 mm | - | 70 W/m² | - |
| 1777467810 | 13.89° C | 79% | 1014.2 hPa | 0 mm | - | 93 W/m² | - |
| 1777467505 | 13.89° C | 79% | 1014.5 hPa | 0 mm | - | 68 W/m² | - |
| 1777467201 | 13.89° C | 80% | 1014.7 hPa | 0 mm | - | 53 W/m² | - |
| 1777466898 | 13.33° C | 80% | 1014.4 hPa | 0 mm | - | 62 W/m² | - |
| 1777466596 | 13.33° C | 80% | 1014.5 hPa | 0 mm | - | 52 W/m² | - |
| 1777466292 | 13.33° C | 80% | 1014.3 hPa | 0 mm | - | 52 W/m² | - |
| 1777465989 | 13.33° C | 80% | 1014.3 hPa | 0 mm | - | 50 W/m² | - |
| 1777465684 | 13.33° C | 81% | 1014.6 hPa | 0 mm | - | 51 W/m² | - |
| 1777465380 | 13.33° C | 80% | 1014.3 hPa | 0 mm | - | 29 W/m² | - |
| 1777465079 | 13.33° C | 80% | 1014.4 hPa | 0 mm | - | 40 W/m² | - |
| 1777464775 | 13.33° C | 81% | 1014.5 hPa | 0 mm | - | 52 W/m² | - |
| 1777464471 | 13.33° C | 81% | 1014.5 hPa | 0 mm | - | 39 W/m² | - |
| 1777464167 | 13.33° C | 81% | 1014.4 hPa | 0 mm | - | 38 W/m² | - |
| 1777463866 | 12.78° C | 80% | 1014.5 hPa | 0 mm | - | 43 W/m² | - |
| 1777463562 | 12.78° C | 80% | 1014.4 hPa | 0 mm | - | 33 W/m² | - |
| 1777463257 | 12.78° C | 81% | 1014.6 hPa | 0 mm | - | 23 W/m² | - |
| 1777462954 | 12.78° C | 81% | 1014.7 hPa | 0 mm | - | 21 W/m² | - |
| 1777462650 | 12.78° C | 81% | 1014.5 hPa | 0 mm | - | 21 W/m² | - |
| 1777462345 | 12.78° C | 81% | 1014.8 hPa | 0 mm | - | 20 W/m² | - |
| 1777462041 | 12.78° C | 81% | 1014.5 hPa | 0 mm | - | 17 W/m² | - |
* Rain latest hour (hover to see other rain measurements)
** Current wind speed in m/s (hover to see current wind gust speed)